Location: Newark
(41.5333°N, 14.5500°E)
Time: 08:44:46
(UTC+00:00)

X-37B - Visible Passes

Search period start: 06 March 2021 00:00
Search period end: 16 March 2021 00:00
Orbit: 383 x 391 km, 45.0° (Epoch: 27 February)

Date Brightness Start Highest point End Pass type
(mag) Time Alt. Az. Time Alt. Az. Time Alt. Az.
10 Mar 2.3 18:39:33 10° SSW 18:41:13 23° S 18:41:13 23° S visible
11 Mar 2.4 17:42:00 10° S 17:44:14 17° SE 17:46:03 12° ESE visible
11 Mar 3.2 19:17:20 10° WSW 19:18:22 19° WSW 19:18:22 19° WSW visible
12 Mar 0.8 18:19:04 10° SW 18:22:12 54° SSE 18:23:05 38° E visible
13 Mar 1.3 18:57:16 10° W 18:59:58 52° WNW 18:59:58 52° WNW visible
14 Mar 0.6 17:58:51 10° WSW 18:02:03 89° S 18:04:28 17° ENE visible
14 Mar 3.6 19:35:49 10° WNW 19:36:46 17° WNW 19:36:46 17° WNW visible
15 Mar 1.3 18:37:18 10° W 18:40:25 48° N 18:41:10 38° NE visible
